Content
SEND FEEDBACK

Daily
Averages
Monthly
Summary
Mexico

CANCUN, QUINTANA ROO


Home > North America > Mexico > Quintana Roo
Elevation: 30 feet     Latitude: 21 09N     Longitude: 086 49W

WEATHER
 
SELECT A DAY
Number of Records: 167,932;   Date Range: 1/1/95 - 12/25/14
 
SHARE

PRINT THIS DATA

[ ← Previous Day ]
WEATHER ALMANAC - MARCH 14, 2014
[ Next Day → ]
[ °C ]   °F
Weather ElementAverageHighLow
Temperature76.3 °F80.6 °F (12:40 pm)71.6 °F (1:44 am)
Dewpoint66.5 °F71.6 °F (11:43 pm)60.8 °F (4:46 am)
Humidity71.7 %83 % (10:44 pm)61 % (10:41 am)
Barometer30.06 in30.12 in (9:41 am)30.01 in (5:42 pm)
Wind Speed8.2 mph12.7 mph (9:41 am)
Weather ElementAverage
Visibility7 mi
Wind DirectionENE (83.5 °)

Weather ElementTotal
Precipitation---
Cooling Degree Days11.1 (Base 65)
Growing Degree Days26.1 (Base 50)
Averaged from 23 records on March 14, 2014
WEATHER CONDITIONS BREAKOUT
WIND DIRECTION BREAKOUT
WEATHER BY HOUR - MARCH 14, 2014
[ °C ]   °F
Local TimeTemperatureDewpointHumidityBarometerVisibilityWind DirectionWind SpeedGust SpeedPrecipitationEventsConditions
1:44 AM71.6 °F64.4 °F78 %30.06 in7.0 miENE (60°)5.8 mphMostly Cloudy
2:48 AM71.6 °F62.6 °F73 %30.02 in7.0 miENE (70°)5.8 mphMostly Cloudy
3:47 AM71.6 °F62.6 °F73 %30.05 in7.0 miEast (80°)5.8 mphMostly Cloudy
4:46 AM71.6 °F60.8 °F69 %30.06 in7.0 miENE (60°)5.8 mphScattered Clouds
5:46 AM71.6 °F62.6 °F73 %30.05 in7.0 miNE (40°)5.8 mphPartly Cloudy
6:45 AM73.4 °F64.4 °F73 %30.08 in7.0 miENE (70°)5.8 mphScattered Clouds
7:45 AM75.2 °F64.4 °F69 %30.10 in7.0 miENE (60°)6.9 mphMostly Cloudy
8:42 AM77.0 °F64.4 °F65 %30.08 in7.0 miENE (70°)8.1 mphMostly Cloudy
9:41 AM78.8 °F66.2 °F65 %30.12 in7.0 miENE (70°)12.7 mphMostly Cloudy
10:41 AM78.8 °F64.4 °F61 %30.12 in7.0 miENE (60°)9.2 mphScattered Clouds
11:45 AM78.8 °F64.4 °F61 %30.09 in7.0 miESE (120°)10.4 mphMostly Cloudy
12:40 PM80.6 °F68.0 °F65 %30.08 in7.0 miEast (100°)10.4 mphMostly Cloudy
1:43 PM78.8 °F68.0 °F69 %30.05 in7.0 miESE (120°)12.7 mphMostly Cloudy
2:40 PM80.6 °F68.0 °F65 %30.03 in7.0 miEast (100°)11.5 mphMostly Cloudy
3:41 PM78.8 °F68.0 °F69 %30.03 in7.0 miEast (90°)10.4 mphScattered Clouds
4:43 PM78.8 °F68.0 °F69 %30.02 in7.0 miEast (100°)12.7 mphScattered Clouds
5:42 PM77.0 °F68.0 °F74 %30.01 in7.0 miEast (100°)8.1 mphMostly Cloudy
6:40 PM77.0 °F69.8 °F78 %30.03 in7.0 miEast (90°)6.9 mphMostly Cloudy
7:42 PM77.0 °F69.8 °F78 %30.06 in7.0 miEast (80°)3.5 mphMostly Cloudy
8:41 PM77.0 °F69.8 °F78 %30.04 in7.0 miEast (90°)9.2 mphScattered Clouds
9:47 PM77.0 °F69.8 °F78 %30.06 in7.0 miEast (90°)8.1 mphScattered Clouds
10:44 PM75.2 °F69.8 °F83 %30.05 in7.0 miEast (100°)6.9 mphScattered Clouds
11:43 PM77.0 °F71.6 °F83 %30.01 in7.0 miEast (100°)5.8 mphScattered Clouds
Hourly data recorded from MMUN, located miles away from Cancun, Quintana Roo







STORIES FROM OUR PARTNERS